Location: *
(45.5667°S, 177.5167°W)
Time: 15:50:01
(UTC+00:00)

Cosmos 1151 Rocket - Pass Details

Date: 29 May 2022
Orbit: 592 x 614 km, 82.5° (Epoch: 06 July)

Event Time Altitude Azimuth Distance (km) Brightness Sun altitude
Rises 05:11:07 0° 176° (S) 2,926 6.3 -9.2°
Reaches altitude 10° 05:13:58 10° 157° (SSE) 2,009 5.3 -9.7°
Maximum altitude 05:17:09 19° 111° (ESE) 1,491 4.4 -10.2°
Drops below altitude 10° 05:20:17 10° 65° (ENE) 1,981 5.2 -10.7°
Sets 05:23:03 0° 47° (NE) 2,872 6.2 -11.2°
